CAPE
0 0 0 0 0 0 0 0 0 0 0 0 0 0 0 0 0 0 0 0 0 4 13 24 21 8 3 4 2 0 5 9 4 1 2 3 7 8 6 6 4 34 78
0 0 0 0 0 0 0 0 0 0 0 0 0 0 0 0 0 0 0 0 0 0 0 0 2 3 5 6 4 2 4 5 1 0 1 2 3 6 7 6 4 4 26
0 0 0 0 0 0 0 0 0 0 0 0 0 0 0 0 0 0 0 0 0 0 0 0 0 0 2 2 2 4 6 6 5 2 1 0 3 2 5 6 7 4 3
0 0 0 0 0 0 0 0 0 0 0 0 0 0 0 0 0 0 0 0 0 0 0 0 0 0 0 0 2 4 5 10 8 5 4 3 2 1 1 4 7 6 6
0 0 0 0 0 0 0 0 0 0 0 0 0 0 0 0 0 0 0 0 0 0 0 0 0 0 0 0 1 2 4 8 11 7 7 4 3 2 2 1 1 5 6
0 0 0 0 0 0 0 0 0 0 0 0 0 0 0 0 0 0 0 0 0 0 0 0 0 0 0 1 1 1 3 7 9 9 6 5 2 3 4 2 1 0 4
0 0 0 0 0 0 0 0 0 0 0 0 0 0 0 0 0 0 0 0 0 0 0 0 0 0 0 0 0 0 0 1 4 6 6 7 4 4 2 2 2 1 0
0 0 0 0 0 0 0 0 0 0 0 0 0 0 0 0 0 0 0 0 0 0 0 0 0 0 0 0 0 0 0 0 2 4 7 6 7 5 4 3 3 3 1
0 0 0 0 0 0 0 0 0 0 0 0 0 0 0 0 0 0 0 0 0 0 0 0 0 0 0 0 0 0 0 0 1 4 5 6 6 6 6 3 4 3 2
0 0 0 0 0 0 0 0 0 0 0 0 0 0 0 0 0 0 0 0 0 0 0 0 0 0 0 0 0 0 0 0 0 2 6 9 8 6 6 6 6 5 4
0 0 0 0 0 0 0 0 0 0 0 0 0 0 0 0 0 0 0 0 0 0 0 0 0 0 0 0 0 0 0 0 0 1 4 5 7 7 7 5 4 7 6
0 0 0 0 0 0 0 0 0 0 0 0 0 0 0 0 0 0 0 0 0 0 0 0 0 0 0 0 0 0 0 0 0 0 3 4 3 5 5 4 5 5 6
0 0 0 0 0 0 0 0 0 0 0 0 0 0 0 0 0 0 0 0 0 0 0 0 0 0 0 0 0 0 0 0 0 0 1 4 1 0 1 3 2 3 2
0 0 0 0 0 0 0 0 0 0 0 0 0 0 0 0 0 0 0 0 0 0 0 0 0 0 0 0 0 0 0 0 0 0 1 2 0 0 0 0 1 1 1
0 0 0 0 0 0 0 0 0 0 0 0 0 0 0 0 0 0 0 0 0 0 0 0 0 0 0 0 0 0 0 0 0 0 0 1 0 0 0 1 1 0 0
0 0 0 0 0 0 0 0 0 0 0 0 0 0 0 0 0 0 0 0 0 0 0 0 0 0 0 0 0 0 0 0 0 0 0 0 0 0 0 0 1 0 0
0 0 0 0 0 0 0 0 0 0 0 0 0 0 0 0 0 0 0 0 0 0 0 0 0 0 0 0 0 0 0 0 0 0 0 0 0 0 0 0 1 1 0
0 0 0 0 0 0 0 0 0 0 0 0 0 0 0 0 0 0 0 0 0 0 0 0 0 0 0 0 0 0 0 0 0 0 0 0 0 0 0 0 0 0 0
0 0 0 0 0 0 0 0 0 0 0 0 0 0 0 0 0 0 0 0 0 0 0 0 0 0 0 0 0 0 0 0 0 0 0 0 0 0 0 0 0 1 0
0 0 0 0 0 0 0 0 0 0 0 0 0 0 0 0 0 0 0 0 0 0 0 0 0 0 0 0 0 0 0 0 0 0 0 0 0 0 0 0 0 0 0
0 0 0 0 0 0 0 0 0 0 0 0 0 0 0 0 0 0 0 0 0 0 0 0 0 0 0 0 0 0 0 0 0 0 0 0 0 0 0 0 0 0 0
0 0 0 0 0 0 0 0 0 0 0 0 0 0 0 0 0 0 0 0 0 0 0 0 0 0 0 0 0 0 0 0 0 0 0 0 0 0 0 0 0 0 0
0 0 0 0 0 0 0 0 0 0 0 0 0 0 0 0 0 0 0 0 0 0 0 0 0 0 0 0 0 0 0 0 0 0 0 0 0 0 0 0 0 0 0
0 0 0 0 0 0 0 0 0 0 0 0 0 0 0 0 0 0 0 0 0 0 0 0 0 0 0 0 0 0 0 0 0 0 0 0 0 0 0 0 0 0 0
0 0 0 0 0 0 0 0 0 0 0 0 0 0 0 0 0 0 0 0 0 0 0 0 0 0 0 0 0 0 0 0 0 0 0 0 0 0 0 0 0 0 0
0 0 0 0 0 0 0 0 0 0 0 0 0 0 0 0 0 0 0 0 0 0 0 0 0 0 0 0 0 0 0 0 0 0 0 0 0 0 0 0 0 0 0
CIN
-0 -0 -0 -0 -0 -0 -0 -0 -0 -0 -0 -0 -0 -0 -0 -0 -0 -0 -0 -0 -0 -0 -0 -0 -1 -1 -1 -1 -0 -1 -0 -0 -0 -0 -0 -0 -0 -0 -0 -0 -0 -18 -29
-0 -0 -0 -0 -0 -0 -0 -0 -0 -0 -0 -0 -0 -0 -0 -0 -0 -0 -0 -0 -0 -0 -0 -0 -0 -0 -0 -0 -0 -1 -0 -1 -0 -1 -1 -0 -0 -0 -0 -0 -0 -0 -41
-0 -0 -0 -0 -0 -0 -0 -0 -0 -0 -0 -0 -0 -0 -0 -0 -0 -0 -0 -0 -0 -0 -0 -0 -0 -0 -1 -0 -1 -1 -0 -1 -1 -0 -1 -1 -0 -0 -0 -0 -0 -0 -0
-0 -0 -0 -0 -0 -0 -0 -0 -0 -0 -0 -0 -0 -0 -0 -0 -0 -0 -0 -0 -0 -0 -0 -0 -0 -0 -0 -0 -1 -1 -1 -0 -1 -1 -0 -0 -1 -0 -0 -0 -0 -0 -0
-0 -0 -0 -0 -0 -0 -0 -0 -0 -0 -0 -0 -0 -0 -0 -0 -0 -0 -0 -0 -0 -0 -0 -0 -0 -0 -0 -0 -0 -1 -0 -1 -0 -1 -0 -1 -0 -0 -0 -0 -0 -0 -0
-0 -0 -0 -0 -0 -0 -0 -0 -0 -0 -0 -0 -0 -0 -0 -0 -0 -0 -0 -0 -0 -0 -0 -0 -0 -0 -0 -0 -0 -0 -0 -0 -0 -0 -1 -0 -0 -0 -1 -0 -0 -0 -0
-0 -0 -0 -0 -0 -0 -0 -0 -0 -0 -0 -0 -0 -0 -0 -0 -0 -0 -0 -0 -0 -0 -0 -0 -0 -0 -0 -0 -0 -0 -0 -1 -0 -1 -1 -1 -1 -0 -1 -0 -1 -0 -0
-0 -0 -0 -0 -0 -0 -0 -0 -0 -0 -0 -0 -0 -0 -0 -0 -0 -0 -0 -0 -0 -0 -0 -0 -0 -0 -0 -0 -0 -0 -0 -0 -0 -0 -1 -1 -1 -1 -0 -0 -1 -0 -1
-0 -0 -0 -0 -0 -0 -0 -0 -0 -0 -0 -0 -0 -0 -0 -0 -0 -0 -0 -0 -0 -0 -0 -0 -0 -0 -0 -0 -0 -0 -0 -0 -0 -0 -0 -0 -1 -1 -1 -1 -0 -0 -0
-0 -0 -0 -0 -0 -0 -0 -0 -0 -0 -0 -0 -0 -0 -0 -0 -0 -0 -0 -0 -0 -0 -0 -0 -0 -0 -0 -0 -0 -0 -0 -0 -0 -0 -0 -1 -0 -0 -1 -1 -0 -0 -0
-0 -0 -0 -0 -0 -0 -0 -0 -0 -0 -0 -0 -0 -0 -0 -0 -0 -0 -0 -0 -0 -0 -0 -0 -0 -0 -0 -0 -0 -0 -0 -0 -0 -0 -0 -1 -0 -0 -0 -0 -0 -0 -1
-0 -0 -0 -0 -0 -0 -0 -0 -0 -0 -0 -0 -0 -0 -0 -0 -0 -0 -0 -0 -0 -0 -0 -0 -0 -0 -0 -0 -0 -0 -0 -0 -0 -0 -0 -0 -0 -0 -0 -0 -0 -0 -1
-0 -0 -0 -0 -0 -0 -0 -0 -0 -0 -0 -0 -0 -0 -0 -0 -0 -0 -0 -0 -0 -0 -0 -0 -0 -0 -0 -0 -0 -0 -0 -0 -0 -0 -0 -0 -0 -0 -0 -0 -0 -0 -0
-0 -0 -0 -0 -0 -0 -0 -0 -0 -0 -0 -0 -0 -0 -0 -0 -0 -0 -0 -0 -0 -0 -0 -0 -0 -0 -0 -0 -0 -0 -0 -0 -0 -0 -0 -0 -0 -0 -0 -0 -0 -0 -0
-0 -0 -0 -0 -0 -0 -0 -0 -0 -0 -0 -0 -0 -0 -0 -0 -0 -0 -0 -0 -0 -0 -0 -0 -0 -0 -0 -0 -0 -0 -0 -0 -0 -0 -0 -0 -0 -0 -0 -0 -0 -0 -0
-0 -0 -0 -0 -0 -0 -0 -0 -0 -0 -0 -0 -0 -0 -0 -0 -0 -0 -0 -0 -0 -0 -0 -0 -0 -0 -0 -0 -0 -0 -0 -0 -0 -0 -0 -0 -0 -0 -0 -0 -0 -0 -0
-0 -0 -0 -0 -0 -0 -0 -0 -0 -0 -0 -0 -0 -0 -0 -0 -0 -0 -0 -0 -0 -0 -0 -0 -0 -0 -0 -0 -0 -0 -0 -0 -0 -0 -0 -0 -0 -0 -0 -0 -0 -0 -0
-0 -0 -0 -0 -0 -0 -0 -0 -0 -0 -0 -0 -0 -0 -0 -0 -0 -0 -0 -0 -0 -0 -0 -0 -0 -0 -0 -0 -0 -0 -0 -0 -0 -0 -0 -0 -0 -0 -0 -0 -0 -0 -0
-0 -0 -0 -0 -0 -0 -0 -0 -0 -0 -0 -0 -0 -0 -0 -0 -0 -0 -0 -0 -0 -0 -0 -0 -0 -0 -0 -0 -0 -0 -0 -0 -0 -0 -0 -0 -0 -0 -0 -0 -0 -0 -0
-0 -0 -0 -0 -0 -0 -0 -0 -0 -0 -0 -0 -0 -0 -0 -0 -0 -0 -0 -0 -0 -0 -0 -0 -0 -0 -0 -0 -0 -0 -0 -0 -0 -0 -0 -0 -0 -0 -0 -0 -0 -0 -0
-0 -0 -0 -0 -0 -0 -0 -0 -0 -0 -0 -0 -0 -0 -0 -0 -0 -0 -0 -0 -0 -0 -0 -0 -0 -0 -0 -0 -0 -0 -0 -0 -0 -0 -0 -0 -0 -0 -0 -0 -0 -0 -0
-0 -0 -0 -0 -0 -0 -0 -0 -0 -0 -0 -0 -0 -0 -0 -0 -0 -0 -0 -0 -0 -0 -0 -0 -0 -0 -0 -0 -0 -0 -0 -0 -0 -0 -0 -0 -0 -0 -0 -0 -0 -0 -0
-0 -0 -0 -0 -0 -0 -0 -0 -0 -0 -0 -0 -0 -0 -0 -0 -0 -0 -0 -0 -0 -0 -0 -0 -0 -0 -0 -0 -0 -0 -0 -0 -0 -0 -0 -0 -0 -0 -0 -0 -0 -0 -0
-0 -0 -0 -0 -0 -0 -0 -0 -0 -0 -0 -0 -0 -0 -0 -0 -0 -0 -0 -0 -0 -0 -0 -0 -0 -0 -0 -0 -0 -0 -0 -0 -0 -0 -0 -0 -0 -0 -0 -0 -0 -0 -0
-0 -0 -0 -0 -0 -0 -0 -0 -0 -0 -0 -0 -0 -0 -0 -0 -0 -0 -0 -0 -0 -0 -0 -0 -0 -0 -0 -0 -0 -0 -0 -0 -0 -0 -0 -0 -0 -0 -0 -0 -0 -0 -0
-0 -0 -0 -0 -0 -0 -0 -0 -0 -0 -0 -0 -0 -0 -0 -0 -0 -0 -0 -0 -0 -0 -0 -0 -0 -0 -0 -0 -0 -0 -0 -0 -0 -0 -0 -0 -0 -0 -0 -0 -0 -0 -0
Wind_Speed
17 18 19 19 20 20 20 20 19 20 20 21 22 22 23 23 23 23 24 26 26 25 25 24 25 25 26 25 25 25 23 23 23 23 22 21 21 20 19 20 21 22 24
17 18 19 19 20 19 19 19 18 19 20 20 21 22 22 23 23 23 23 25 26 26 26 26 25 25 25 25 25 25 24 24 23 23 22 21 21 20 20 20 20 21 22
17 18 18 19 19 19 19 19 18 18 19 20 21 21 21 22 22 23 23 23 24 26 26 26 26 26 25 25 25 25 25 24 23 23 22 22 21 20 20 20 20 20 20
16 17 18 19 19 19 18 17 17 17 18 19 20 21 21 22 22 22 23 23 23 23 25 26 26 26 26 26 25 25 25 24 24 23 23 22 21 21 20 20 20 20 19
16 17 17 18 19 19 18 17 17 17 18 19 20 20 21 21 21 21 22 23 23 23 22 25 26 26 26 26 26 26 25 24 24 24 23 22 22 21 21 20 20 19 20
15 16 17 18 19 18 18 17 17 18 18 18 19 20 21 21 21 21 21 22 22 23 23 23 24 25 26 26 26 26 26 25 24 24 23 23 22 21 21 21 20 20 19
15 15 16 17 18 17 17 17 17 17 17 17 18 19 20 20 21 21 20 21 22 22 23 23 24 24 24 25 27 27 26 26 25 24 24 23 22 22 22 21 21 20 20
13 14 15 16 16 16 16 15 15 15 15 14 15 15 16 17 19 20 19 20 20 20 22 23 24 24 25 25 26 27 27 26 25 24 24 23 22 22 22 21 21 21 20
13 14 14 15 15 15 15 14 14 13 14 15 14 15 17 17 16 17 19 19 19 19 20 22 23 24 25 25 25 26 27 26 25 25 24 23 23 23 22 22 22 22 21
12 13 14 14 15 15 15 14 13 12 13 13 15 15 16 16 17 18 16 17 18 18 20 21 23 24 25 25 26 26 28 27 26 25 24 23 23 23 23 23 22 22 22
11 12 12 13 14 14 15 15 15 14 14 14 15 16 17 18 17 19 19 17 17 18 19 21 22 23 25 26 26 27 28 27 26 25 24 24 24 24 23 23 23 23 22
10 10 11 12 13 14 14 14 15 15 16 16 16 15 16 17 17 17 18 17 17 17 18 19 21 23 26 26 26 28 29 28 27 25 24 24 24 24 24 24 23 23 23
7 7 9 11 12 12 13 14 15 16 16 16 16 17 16 16 15 15 16 17 17 17 16 16 19 23 26 26 27 29 28 27 27 26 25 25 25 25 25 24 24 24 24
4 5 7 9 11 11 11 13 13 15 15 16 16 16 15 15 14 14 15 16 17 16 16 18 17 22 25 26 27 29 28 28 27 26 25 25 26 26 25 25 25 25 25
4 4 6 8 9 9 10 11 13 14 15 15 15 15 14 14 13 14 14 15 17 18 18 17 20 20 24 25 27 28 29 29 27 26 26 26 27 27 26 26 25 25 26
5 5 6 6 7 9 9 10 11 12 13 14 13 12 13 13 13 13 14 16 15 17 18 17 18 20 23 25 27 28 28 28 27 27 26 28 28 27 27 26 26 26 26
7 6 7 7 8 9 9 10 11 11 12 12 12 12 12 11 12 12 13 13 12 15 18 17 17 19 22 25 27 29 27 27 27 27 28 28 28 27 27 26 27 27 27
7 8 6 7 7 8 8 10 10 11 11 12 12 12 11 10 10 10 12 11 11 12 12 17 18 19 22 25 27 29 29 28 28 27 29 27 27 27 27 28 28 28 28
9 9 9 9 8 8 9 11 11 12 12 13 11 11 10 10 11 11 11 9 11 11 12 13 18 19 22 24 28 26 28 28 28 29 26 26 28 28 29 29 29 29 30
10 10 10 9 9 9 11 12 13 13 13 11 10 11 11 10 12 12 11 9 9 10 11 13 17 20 22 24 25 27 29 28 30 27 24 28 29 30 29 29 28 30 33
14 13 11 11 10 11 13 13 12 12 12 11 13 12 13 12 13 13 10 8 9 11 12 13 16 19 22 25 26 27 29 30 30 25 29 31 31 30 30 29 30 33 35
15 15 13 13 14 13 14 13 13 14 12 12 13 14 13 13 14 14 11 9 7 9 13 14 16 20 22 24 25 27 29 31 30 23 33 34 32 32 30 31 33 36 38
14 14 15 16 16 17 16 15 14 13 13 13 13 14 13 15 15 14 12 9 8 8 11 13 17 20 22 22 25 28 29 31 32 32 33 33 31 31 32 33 36 39 37
16 17 17 17 18 18 16 16 15 14 14 14 16 14 13 15 15 12 13 12 12 10 10 12 17 19 19 21 23 27 30 32 31 31 30 32 31 34 36 36 36 35 33
17 17 17 18 19 18 16 15 15 16 18 18 18 17 16 16 18 12 14 16 16 14 11 12 16 18 19 20 23 28 31 34 36 34 32 31 34 39 38 35 32 32 36
16 16 17 17 17 18 16 16 15 15 19 22 20 19 16 16 16 14 15 18 19 17 15 15 17 18 18 19 22 24 29 33 35 34 27 34 37 38 36 33 34 40 38
Wind_Direction
16 31 33 32 34 37 40 48 54 55 53 50 50 49 45 43 41 37 29 17 18 20 17 13 9 8 2 357 352 347 347 344 339 335 333 333 332 327 320 314 305 295 281
22 28 34 33 32 35 41 45 54 56 52 51 48 46 44 41 38 36 34 27 18 19 15 9 4 359 356 355 352 348 344 340 340 338 334 330 330 329 324 322 320 314 299
29 33 32 33 34 35 39 42 43 52 56 50 47 46 42 37 34 31 29 27 24 19 15 12 8 2 356 351 351 349 344 341 337 336 335 334 331 329 329 327 324 322 315
33 37 40 38 35 34 36 41 48 55 55 56 53 49 46 41 37 31 27 24 21 18 16 12 10 5 358 354 350 346 344 342 340 336 334 333 332 331 329 328 328 325 322
34 40 44 42 43 36 39 45 45 53 54 52 49 47 45 42 39 34 31 22 18 14 12 10 8 3 0 355 350 346 342 339 339 337 334 331 330 330 330 329 326 324 322
42 40 37 39 40 37 38 43 49 50 53 54 49 41 37 36 35 32 28 25 19 14 9 5 2 1 358 356 350 346 342 339 334 335 333 330 327 325 325 327 326 323 320
41 41 37 35 33 35 42 48 55 54 49 54 47 39 33 31 27 26 27 24 19 14 8 4 0 358 354 352 350 345 341 337 333 330 329 328 326 323 320 319 321 321 319
37 31 32 32 33 37 45 56 55 49 43 42 34 33 24 22 22 22 24 23 19 16 9 3 359 356 351 347 346 344 340 336 334 332 329 326 324 323 320 318 317 317 315
31 30 30 33 31 35 43 43 45 42 34 25 26 21 16 13 19 20 19 20 19 15 9 1 358 354 350 346 344 342 337 334 331 330 329 327 323 320 319 317 314 311 310
31 30 31 31 30 31 33 30 32 27 24 19 19 16 13 12 8 7 14 16 17 14 8 360 356 354 348 344 342 339 334 331 329 327 326 325 323 318 316 316 314 311 307
32 32 30 27 27 30 28 27 23 22 19 16 13 13 11 13 12 5 2 8 12 11 6 360 358 354 346 341 336 335 331 330 328 326 323 323 320 318 315 312 313 312 311
38 38 32 25 26 27 26 24 21 18 14 12 11 11 10 8 9 8 6 6 5 7 4 3 359 353 345 340 339 335 333 329 327 325 321 320 318 317 315 312 309 309 308
44 48 34 25 21 21 21 20 15 12 11 8 10 10 13 14 18 18 13 8 5 5 4 2 358 351 345 344 341 337 336 333 329 325 322 319 316 314 312 310 308 307 306
28 35 22 16 14 14 14 12 9 5 6 7 8 9 13 17 22 23 16 10 5 4 2 357 358 351 346 344 342 338 335 333 330 327 323 319 315 311 309 308 307 305 304
343 351 352 354 359 5 4 3 0 358 360 1 3 9 12 16 20 22 19 10 4 358 356 357 352 353 348 345 341 338 335 331 329 325 321 317 313 309 307 305 305 304 303
305 314 324 336 346 349 350 354 355 355 354 355 1 7 9 13 16 17 13 8 9 3 355 357 355 352 349 344 341 339 337 331 331 324 320 313 311 309 307 305 304 304 304
282 292 301 311 321 331 340 343 341 345 344 350 355 356 358 8 8 9 7 14 19 8 356 357 358 354 349 342 339 337 337 334 331 327 317 314 310 309 308 307 305 304 304
261 270 287 283 295 316 314 325 323 328 331 336 341 344 347 354 358 2 1 5 10 11 12 356 354 352 346 342 338 335 334 332 328 327 318 317 315 311 308 305 305 304 304
264 270 281 281 283 291 303 308 313 318 323 326 331 333 336 341 344 349 353 2 3 5 3 2 350 351 346 342 337 340 337 332 329 322 322 320 312 310 306 304 303 303 302
254 269 268 270 270 279 300 310 306 311 316 319 320 324 325 326 329 338 343 351 356 360 0 357 351 347 344 340 339 337 334 335 326 326 330 320 315 311 311 309 308 304 301
270 268 265 266 273 277 289 303 297 302 304 307 312 314 316 317 320 328 336 344 351 351 352 353 349 345 341 337 334 336 332 330 328 332 321 317 315 315 315 313 310 307 303
266 271 260 262 275 284 286 284 285 293 295 295 301 306 311 310 312 316 318 329 338 344 344 347 346 341 339 335 334 332 330 326 325 336 319 313 316 314 315 313 309 304 302
279 272 270 275 274 283 289 283 279 285 287 285 293 300 301 305 307 313 318 325 328 337 339 342 338 337 336 334 331 329 327 324 320 322 321 317 323 318 318 315 310 306 306
273 277 272 274 280 283 288 284 277 283 284 285 288 292 293 298 302 305 309 315 318 327 331 335 332 334 335 334 330 328 323 321 322 324 326 320 322 318 317 316 316 316 315
274 273 274 279 281 285 278 280 276 278 284 287 287 288 290 294 297 293 304 306 311 319 328 326 328 330 330 329 325 323 317 315 313 316 321 319 319 314 315 317 320 320 315
286 286 283 281 280 283 278 277 277 286 286 287 290 290 277 283 293 290 299 304 305 312 320 324 325 326 326 326 324 323 318 314 314 319 328 322 320 321 319 320 320 315 315